﻿Дата;Google;AdRiver
2023-12-20;1;0
2023-12-11;1;0
2023-11-16;1;0
2023-11-14;1;0
2023-05-14;1;0
2022-12-02;0;1
2022-11-26;1;0
2022-11-23;1;0
2022-10-21;1;0
2022-10-14;1;0
2022-04-30;1;0
2022-03-25;1;0
2022-02-28;1;0
2022-02-27;1;0
2022-02-26;1;0
2022-02-23;1;0
2022-02-22;1;0
2022-02-21;1;0
2022-02-19;2;0
2022-02-16;1;0
2022-02-15;1;0
2022-02-14;1;0
2022-02-12;1;0
2022-02-11;2;0
2022-02-10;2;0
2022-02-09;1;0
2022-02-08;4;0
2022-02-07;4;0
2022-02-06;1;0
2022-02-05;1;0
2022-02-02;2;0
2022-02-01;1;0
2022-01-31;1;0
2022-01-30;1;0
2022-01-29;1;0
2022-01-28;2;0
2022-01-27;1;0
2022-01-26;1;0
2022-01-25;2;0
2022-01-24;2;0
2022-01-23;1;0
2022-01-22;2;0
2022-01-21;2;0
2022-01-20;3;0
2022-01-19;1;0
2022-01-18;3;0
2022-01-17;1;0
2022-01-16;2;0
2022-01-15;2;0
2022-01-13;2;0
2022-01-11;1;0
2022-01-10;1;0
2022-01-08;1;0
2022-01-06;2;0
2022-01-05;1;0
2022-01-04;1;0
2022-01-03;2;0
2022-01-02;4;0
2021-12-31;1;0
2021-12-29;3;0
2021-12-28;2;0
2021-12-27;2;0
2021-12-26;2;0
2021-12-23;2;0
2021-12-22;1;0
2021-12-21;1;0
2021-12-17;2;0
2021-12-16;2;0
2021-12-12;1;0
2021-12-03;3;0
2021-12-01;1;0
2021-11-30;1;0
2021-11-29;1;0
2021-11-28;2;0
2021-11-26;1;0
2021-11-24;1;0
2021-11-23;1;0
2021-11-22;1;0
2021-11-21;1;0
2021-11-20;3;0
2021-11-18;1;0
2021-11-16;4;0
2021-11-15;2;0
2021-11-14;1;0
2021-11-13;2;0
2021-11-12;2;0
2021-11-11;2;0
2021-11-10;2;0
2021-11-09;1;0
2021-11-06;1;0
2021-11-04;1;0
2021-11-03;1;0
2021-11-02;2;0
2021-11-01;1;0
2021-10-31;1;0
2021-10-30;2;0
2021-10-28;1;0
2021-10-27;1;0
2021-10-26;4;0
2021-10-25;3;0
2021-10-24;2;0
2021-10-23;2;0
2021-10-21;2;0
2021-10-20;2;0
2021-10-18;1;0
2021-10-17;2;0
2021-10-16;1;0
2021-10-15;2;0
2021-10-14;1;0
2021-10-13;1;0
2021-10-12;1;0
2021-10-07;1;0
2021-10-06;2;0
2021-10-05;2;0
2021-10-04;2;0
2021-09-30;1;0
2021-09-29;2;0
2021-09-28;1;0
2021-09-22;1;0
2021-09-14;1;0
2021-09-10;3;0
2021-09-06;2;0
2021-09-05;1;0
2021-09-04;1;0
2021-09-01;2;0
2021-08-30;2;0
2021-08-29;1;0
2021-08-27;1;0
2021-08-26;2;0
2021-08-22;1;0
2021-08-21;1;0
2021-08-20;1;0
2021-08-19;1;0
2021-08-15;1;0
2021-08-05;1;0
2021-08-01;1;0
2021-07-30;1;0
2021-07-24;2;0
2021-07-22;1;0
2021-07-16;1;0
2021-07-14;1;0
2021-07-12;1;0
2021-07-09;1;0
2021-07-06;1;0
2021-07-05;1;0
2021-07-03;1;0
2021-07-02;1;0
2021-06-28;1;0
2021-06-24;1;0
2021-06-23;1;0
2021-06-22;1;0
2021-06-20;1;0
2021-06-15;1;0
2021-06-14;1;0
2021-06-13;2;0
2021-06-12;1;0
2021-06-08;2;0
2021-06-07;1;0
2021-06-06;2;0
2021-06-05;2;0
2021-06-03;1;0
2021-05-24;3;0
2021-05-22;1;0
2021-05-19;1;0
2021-05-18;2;0
2021-05-17;1;0
2021-05-15;2;0
2021-05-14;1;0
2021-05-13;1;0
2021-05-11;1;0
2021-05-08;1;0
2021-05-06;1;0
2021-05-05;1;0
2021-04-29;2;0
2021-04-27;2;0
2021-04-26;1;0
2021-04-24;1;0
2021-04-22;3;0
2021-04-21;2;0
2021-04-20;2;0
2021-04-19;2;0
2021-04-15;1;0
2021-04-13;3;0
2021-04-11;2;0
2021-04-10;1;0
2021-04-06;2;0
2021-04-05;4;0
2021-04-04;3;0
2021-04-03;1;0
2021-04-02;2;0
2021-03-28;1;0
2021-03-27;4;0
2021-03-26;1;0
2021-03-25;1;0
2021-03-24;1;0
2021-03-23;2;0
2021-03-22;1;0
2021-03-21;1;0
2021-03-20;1;0
2021-03-18;1;0
2021-03-16;1;0
2021-03-15;2;0
2021-03-14;4;0
2021-03-13;3;0
2021-03-12;1;0
2021-03-10;1;0
2021-03-09;1;0
2021-03-08;1;0
2021-03-07;1;0
2021-03-06;1;0
2021-03-05;1;0
2021-03-02;1;0
2021-02-28;2;0
2021-02-27;1;0
2021-02-26;2;0
2021-02-21;1;0
2021-02-20;1;0
2021-02-17;1;0
2021-02-16;2;0
2021-02-15;1;0
2021-02-13;1;0
2021-02-12;1;0
2021-02-06;1;0
2021-01-30;1;0
2021-01-28;2;0
2021-01-27;1;0
2021-01-26;1;0
2021-01-21;2;0
2021-01-18;1;0
2021-01-14;1;0
2021-01-13;1;0
2021-01-12;1;0
2021-01-10;2;0
2021-01-09;1;0
2021-01-07;1;0
2021-01-03;2;0
2021-01-02;1;0
2021-01-01;1;0
2020-12-26;1;0
2020-12-25;4;0
2020-12-23;4;0
2020-12-22;1;0
2020-12-20;2;0
2020-12-18;2;0
2020-12-17;3;0
2020-12-16;2;0
2020-12-15;1;0
2020-12-14;2;0
2020-12-13;1;0
2020-12-11;1;0
2020-12-10;1;0
2020-12-09;1;0
2020-12-08;1;0
2020-12-05;1;0
2020-12-04;2;0
2020-12-03;1;0
2020-12-02;1;0
2020-12-01;1;0
2020-11-29;2;0
2020-11-27;2;0
2020-11-26;1;0
2020-11-23;1;0
2020-11-20;1;0
2020-11-19;1;0
2020-11-18;1;0
2020-11-17;2;0
2020-11-16;2;0
2020-11-15;4;0
2020-11-12;1;0
2020-11-10;1;0
2020-11-09;2;0
2020-11-07;1;0
2020-11-06;1;0
2020-11-05;1;0
2020-11-04;1;0
2020-11-03;1;0
2020-11-01;2;0
2020-10-31;1;0
2020-10-30;1;0
2020-10-28;1;0
2020-10-27;1;0
2020-10-15;1;0
2020-10-14;1;0
2020-10-13;1;0
2020-10-09;1;0
2020-10-07;1;0
2020-10-06;1;0
2020-10-04;1;0
2020-10-03;1;0
2020-09-26;1;0
2020-09-25;2;0
2020-09-23;1;0
2020-09-19;2;0
2020-09-18;1;0
2020-09-17;3;0
2020-09-16;2;0
2020-09-15;1;0
2020-09-13;2;0
2020-09-12;1;0
2020-09-08;1;0
2020-09-06;1;0
2020-09-01;1;0
2020-08-31;2;0
2020-08-29;1;0
2020-08-24;1;0
2020-08-19;1;0
2020-08-18;1;0
2020-08-17;1;0
2020-08-12;2;0
2020-08-11;1;0
2020-08-10;2;0
2020-07-29;1;0
2020-07-25;1;0
2020-07-23;1;0
2020-07-22;1;0
2020-07-16;6;0
2020-07-12;2;0
2020-07-09;1;0
2020-07-08;1;0
2020-07-07;1;0
2020-07-02;1;0
2020-06-29;2;0
2020-06-28;1;0
2020-06-27;1;0
2020-06-26;1;0
2020-06-25;1;0
2020-06-24;2;0
2020-06-23;1;0
2020-06-22;1;0
2020-06-20;2;0
2020-06-18;1;0
2020-06-17;1;0
2020-06-15;2;0
2020-06-14;1;0
2020-06-12;1;0
2020-06-09;2;0
2020-06-08;1;0
2020-06-04;1;0
2020-06-01;2;0
2020-05-31;2;0
2020-05-30;1;0
2020-05-29;2;0
2020-05-27;2;0
2020-05-25;1;0
2020-05-24;1;0
2020-05-23;1;0
2020-05-22;1;0
2020-05-20;1;0
2020-05-18;1;0
2020-05-15;2;0
2020-05-14;2;0
2020-05-13;2;0
2020-05-12;1;0
2020-05-11;1;0
2020-05-10;1;0
2020-05-09;2;0
2020-05-08;1;0
2020-05-04;1;0
2020-04-30;1;0
2020-04-25;1;0
2020-04-22;1;0
2020-04-20;1;0
2020-04-18;2;0
2020-04-17;2;0
2020-04-12;1;0
2020-04-11;2;0
2020-04-09;2;0
2020-04-08;1;0
2020-04-05;1;0
2020-04-03;1;0
2020-04-01;1;0
2020-03-31;2;0
2020-03-26;1;0
2020-03-24;1;0
2020-03-23;2;0
2020-03-21;1;0
2020-03-18;2;0
2020-03-17;2;0
2020-03-16;1;0
2020-03-15;1;0
2020-03-14;2;0
2020-03-11;1;0
2020-03-04;1;0
2020-02-23;1;0
2020-02-22;1;0
2020-02-20;1;0
2020-02-17;1;0
2020-02-12;1;0
2020-02-09;1;0
2020-02-08;1;0
2020-02-07;1;0
2020-02-06;1;0
2020-02-05;1;0
2020-02-04;1;0
2020-02-03;2;0
2020-02-02;1;0
2020-02-01;1;0
2020-01-31;2;0
2020-01-30;3;0
2020-01-29;1;0
2020-01-28;1;0
2020-01-27;3;0
2020-01-26;1;0
2020-01-25;1;0
2020-01-24;1;0
2020-01-23;2;0
2020-01-22;3;0
2020-01-21;1;0
2020-01-20;1;0
2020-01-15;1;0
2019-12-09;1;0
2019-12-01;1;0
2019-11-28;1;0
2019-11-27;3;0
2019-11-26;2;0
2019-11-24;1;0
2019-11-20;1;0
2019-11-18;1;0
2019-11-16;2;0
2019-11-15;2;0
2019-11-14;3;0
2019-11-12;1;0
2019-11-09;1;0
2019-11-08;3;0
2019-11-07;3;0
2019-11-03;3;0
2019-11-02;2;0
2019-11-01;2;0
2019-10-31;1;0
2019-10-29;4;0
2019-10-28;1;0
2019-10-27;2;0
2019-10-26;1;0
2019-10-24;1;0
2019-10-23;1;0
2019-10-21;1;0
2019-10-16;1;0
2019-10-14;3;0
2019-10-13;3;0
2019-10-12;3;0
2019-10-11;3;0
2019-10-10;1;0
2019-10-06;1;0
2019-10-05;1;0
2019-10-04;1;0
2019-10-03;1;0
2019-10-02;2;0
2019-10-01;2;0
2019-09-30;1;0
2019-09-29;1;0
2019-09-28;2;0
2019-09-27;3;0
2019-09-26;1;0
2019-09-25;3;0
2019-09-24;2;0
2019-09-23;5;0
2019-09-22;2;0
2019-09-21;2;0
2019-09-20;1;0
2019-09-16;3;0
2019-09-14;1;0
2019-09-13;1;0
2019-09-10;2;0
2019-09-09;2;0
2019-09-08;1;0
2019-09-02;1;0
2019-08-28;1;0
2019-08-22;2;0
2019-08-20;2;0
2019-08-19;3;0
2019-08-18;1;0
2019-08-16;1;0
2019-08-15;1;0
2019-08-13;4;0
2019-08-12;3;0
2019-08-11;1;0
2019-08-10;3;0
2019-08-09;2;0
2019-08-08;1;0
2019-08-07;1;0
2019-08-06;2;0
2019-08-05;1;0
2019-08-03;1;0
2019-08-02;2;0
2019-07-31;3;0
2019-07-30;2;0
2019-07-29;2;0
2019-07-28;3;0
2019-07-27;2;0
2019-07-26;7;0
2019-07-25;6;0
2019-07-24;6;0
2019-07-23;6;0
2019-07-22;7;0
2019-07-21;6;0
2019-07-20;5;0
2019-07-19;4;0
2019-07-16;1;0
2019-07-13;1;0
2019-07-10;3;0
2019-07-09;2;0
2019-07-08;2;0
2019-07-07;1;0
2019-07-06;1;0
2019-07-05;2;0
2019-07-03;2;0
2019-07-02;3;0
2019-07-01;2;0
2019-06-30;1;0
2019-06-29;1;0
2019-06-28;1;0
2019-06-27;1;0
2019-06-26;2;0
2019-06-24;1;0
2019-06-21;1;0
2019-06-20;2;0
2019-06-19;3;0
2019-06-17;1;0
2019-06-16;3;0
2019-06-15;2;0
2019-06-14;4;0
2019-06-13;3;0
2019-06-12;2;0
2019-06-11;1;0
2019-06-08;1;0
2019-06-06;4;0
2019-06-04;5;0
2019-06-03;3;0
2019-06-02;1;0
2019-06-01;3;0
2019-05-30;1;0
2019-05-28;1;0
2019-05-27;1;0
2019-05-26;1;0
2019-05-25;1;0
2019-05-20;1;0
2019-05-19;2;0
2019-05-18;2;0
2019-05-17;4;0
2019-05-16;2;0
2019-05-15;1;0
2019-05-14;1;0
2019-05-12;1;0
2019-05-11;4;0
2019-05-06;1;0
2019-05-04;2;0
2019-05-03;1;0
2019-05-02;1;0
2019-05-01;2;0
2019-04-30;1;0
2019-04-27;1;0
2019-04-26;2;0
2019-04-25;1;0
2019-04-24;2;0
2019-04-23;1;0
2019-04-22;1;0
2019-04-21;1;0
2019-04-19;2;0
2019-04-18;2;0
2019-04-17;1;0
2019-04-15;2;0
2019-04-14;1;0
2019-04-13;1;0
2019-04-12;2;0
2019-04-11;2;0
2019-04-10;4;0
2019-04-09;3;0
2019-04-08;3;0
2019-04-07;2;0
2019-04-06;3;0
2019-04-05;3;0
2019-04-04;2;0
2019-04-03;1;0
2019-04-02;1;0
2019-04-01;3;0
2019-03-30;4;0
2019-03-29;1;0
2019-03-28;2;0
2019-03-27;2;0
2019-03-26;1;0
2019-03-25;2;0
2019-03-24;2;0
2019-03-22;3;0
2019-03-21;1;0
2019-03-20;1;0
2019-03-19;1;0
2019-03-18;2;0
2019-03-17;2;0
2019-03-16;1;0
2019-03-15;2;0
2019-03-13;3;0
2019-03-12;3;0
2019-03-11;1;0
2019-03-10;1;0
2019-03-09;2;0
2019-03-08;1;0
2019-03-07;1;0
2019-03-06;2;0
2019-03-05;1;0
2019-03-04;2;0
2019-03-02;1;0
2019-02-28;1;0
2019-02-27;1;0
2019-02-26;1;0
2019-02-25;2;0
2019-02-23;1;0
2019-02-22;2;0
2019-02-21;1;0
2019-02-20;4;0
2019-02-19;2;0
2019-02-18;2;0
2019-02-17;1;0
2019-02-16;2;0
2019-02-15;3;0
2019-02-14;1;0
2019-02-10;2;0
2019-02-04;1;0
2019-02-02;1;0
2019-01-31;1;0
2019-01-29;1;0
2019-01-28;3;0
2019-01-27;4;0
2019-01-26;1;0
2019-01-25;1;0
2019-01-24;1;0
2019-01-21;1;0
2019-01-20;1;0
2019-01-17;1;0
2019-01-16;2;0
2019-01-15;1;0
2019-01-14;2;0
2019-01-13;1;0
2019-01-10;1;0
2019-01-06;2;0
2019-01-05;1;0
2019-01-04;1;0
2019-01-02;1;0
2018-12-17;1;0
2018-12-15;1;0
2018-12-10;1;0
2018-12-05;2;0
2018-12-04;1;0
2018-12-03;1;0
2018-12-01;1;0
2018-11-21;2;0
2018-11-20;2;0
2018-11-19;1;0
2018-11-18;2;0
2018-11-16;1;0
2018-11-15;2;0
2018-11-14;1;0
2018-11-13;2;0
2018-11-12;1;0
2018-11-11;1;0
2018-11-10;1;0
2018-11-09;1;0
2018-11-08;1;0
2018-11-07;3;0
2018-11-05;1;0
2018-11-04;1;0
2018-11-03;4;0
2018-11-02;1;0
2018-10-31;1;0
2018-10-30;1;0
2018-10-29;1;0
2018-10-28;1;0
2018-10-27;1;0
2018-10-26;2;0
2018-10-25;1;0
2018-10-24;2;0
2018-10-23;1;0
2018-10-22;2;0
2018-10-21;1;0
2018-10-20;3;0
2018-10-19;1;0
2018-10-18;1;0
2018-10-17;3;0
2018-10-16;1;0
2018-10-14;1;0
2018-10-13;1;0
2018-10-11;3;0
2018-10-10;4;0
2018-10-09;5;0
2018-10-08;3;0
2018-10-07;3;0
2018-10-06;1;0
2018-10-05;1;0
2018-10-04;3;0
2018-10-03;4;0
2018-10-02;2;0
2018-10-01;4;0
2018-09-30;5;0
2018-09-28;5;0
2018-09-27;6;0
2018-09-26;3;0
2018-09-25;4;0
2018-09-24;3;0
2018-09-23;2;0
2018-09-22;1;0
2018-09-21;2;0
2018-09-20;3;0
2018-09-19;2;0
2018-09-18;2;0
2018-09-17;2;0
2018-09-16;2;0
2018-09-15;2;0
2018-09-14;4;0
2018-09-13;3;0
2018-09-12;6;0
2018-09-11;5;0
2018-09-10;3;0
2018-09-09;1;0
2018-09-08;2;0
2018-09-07;3;0
2018-09-06;3;0
2018-09-05;5;0
2018-09-04;4;0
2018-09-03;3;0
2018-09-02;7;0
2018-09-01;2;0
2018-08-31;6;0
2018-08-30;7;0
2018-08-29;2;0
2018-08-28;2;0
2018-08-27;6;0
2018-08-26;5;0
2018-08-25;3;0
2018-08-24;8;0
2018-08-23;4;0
2018-08-22;6;0
2018-08-21;4;0
2018-08-19;5;0
2018-08-18;5;0
2018-08-17;6;0
2018-08-16;6;0
2018-08-15;6;0
2018-08-14;7;0
2018-08-13;6;0
2018-08-12;2;0
2018-08-11;4;0
2018-08-10;5;0
2018-08-09;6;0
2018-08-08;7;0
2018-08-07;4;0
2018-08-06;3;0
2018-08-05;3;0
2018-08-04;5;0
2018-08-03;6;0
2018-08-02;7;0
2018-08-01;4;0
2018-07-31;7;0
2018-07-30;3;0
2018-07-29;5;0
2018-07-28;5;0
2018-07-27;3;0
2018-07-26;8;0
2018-07-25;3;0
2018-07-24;4;0
2018-07-23;7;0
2018-07-22;6;0
2018-07-21;6;0
2018-07-20;6;0
2018-07-19;5;0
2018-07-18;8;0
2018-07-17;7;0
2018-07-16;4;0
2018-07-15;6;0
2018-07-14;5;0
2018-07-13;9;0
2018-07-12;4;0
2018-07-11;10;0
2018-07-10;6;0
2018-07-09;2;0
2018-07-08;5;0
2018-07-07;2;0
2018-07-06;3;0
2018-07-05;8;0
2018-07-04;14;0
2018-07-03;16;0
2018-07-02;11;0
2018-07-01;7;0
2018-06-30;7;0
2018-06-29;11;0
2018-06-28;4;0
2018-06-27;9;0
2018-06-26;13;0
2018-06-25;16;0
2018-06-24;11;0
2018-06-23;6;0
2018-06-22;8;0
2018-06-21;11;0
2018-06-20;14;0
2018-06-19;11;0
2018-06-18;8;0
2018-06-17;9;0
2018-06-16;4;0
2018-06-15;10;0
2018-06-14;4;0
2018-06-13;5;0
2018-06-12;4;0
2018-06-11;6;0
2018-06-10;8;0
2018-06-09;8;0
2018-06-08;10;0
2018-06-07;5;0
2018-06-06;9;0
2018-06-05;8;0
2018-06-04;5;0
2018-06-03;7;0
2018-06-02;9;0
2018-06-01;5;0
2018-05-31;13;0
2018-05-30;7;0
2018-05-29;6;0
2018-05-28;6;0
2018-05-27;4;0
2018-05-26;4;0
2018-05-25;6;0
2018-05-24;6;0
2018-05-23;1;0
2018-05-22;2;0
2018-05-21;2;0
2018-05-20;1;0
2018-05-19;2;0
2018-05-18;2;0
2018-05-17;2;0
2018-05-16;3;0
2018-05-15;3;0
2018-05-14;2;0
2018-05-13;2;0
2018-05-12;4;0
2018-05-11;2;0
2018-05-10;6;0
2018-05-09;4;0
2018-05-08;2;0
2018-05-07;6;0
2018-05-06;4;0
2018-05-05;5;0
2018-05-04;6;0
2018-05-03;6;0
2018-05-02;12;0
2018-05-01;6;0
2018-04-30;8;0
2018-04-29;6;0
2018-04-28;9;0
2018-04-27;8;0
2018-04-26;6;0
2018-04-25;6;0
2018-04-24;4;0
2018-04-23;6;0
2018-04-22;6;0
2018-04-21;6;0
2018-04-20;6;0
2018-04-19;4;0
2018-04-18;5;0
2018-04-17;6;0
2018-04-16;6;0
2018-04-15;8;0
2018-04-14;5;0
2018-04-13;4;0
2018-04-12;8;0
2018-04-11;8;0
2018-04-10;11;0
2018-04-09;5;0
2018-04-08;6;0
2018-04-07;6;0
2018-04-06;10;0
2018-04-05;7;0
2018-04-04;6;0
2018-04-03;4;0
2018-04-02;9;0
2018-04-01;8;0
2018-03-31;6;0
2018-03-30;4;0
2018-03-29;6;0
2018-03-28;7;0
2018-03-27;7;0
2018-03-26;5;0
2018-03-25;9;0
2018-03-24;5;0
2018-03-23;5;0
2018-03-22;3;0
2018-03-21;4;0
2018-03-20;8;0
2018-03-19;8;0
2018-03-18;6;0
2018-03-17;10;0
2018-03-16;11;0
2018-03-15;7;0
2018-03-14;6;0
2018-03-13;8;0
2018-03-12;16;0
2018-03-11;9;0
2018-03-10;6;0
2018-03-09;4;0
2018-03-08;4;0
2018-03-07;7;0
2018-03-06;3;0
2018-03-05;7;0
2018-03-04;20;0
2018-03-03;5;0
2018-03-02;4;0
2018-03-01;11;0
2018-02-28;2;0
2018-02-27;7;0
2018-02-26;11;0
2018-02-25;7;0
2018-02-24;12;0
2018-02-23;6;0
2018-02-22;9;0
2018-02-21;7;0
2018-02-20;3;0
2018-02-19;5;0
2018-02-18;6;0
2018-02-17;10;0
2018-02-16;2;0
